[[{"header":{"parameterUnit":"m.s-1","parameterCategory":1,"la1":30.2991,"la2":30.254,"lo1":-89.0895,"lo2":-89.0444,"dy":0.0017,"dx":0.0017,"nx":28,"ny":28,"refTime":"2024-03-30T03:00:00:Z","depth":0,"parameterNumber":2,"parameterNumberName":"U-component_of_WINDS"},"data":[0,0,0,0,0,0,0,0,0,0,0,0,0,0,0,0,0,0,0,0,0,0,0,0,0,0,0,0,0,0,0,0,0,0,0,0,0,0,0,0,0,0,0,0,0,0,0,0,0,0,0,0,0,0,0,0,0,0,-1.5205,-1.5205,0,-1.5209,-1.5209,-1.5209,-1.5201,-1.5201,-1.52,-1.52,-1.5205,-1.5205,-1.5206,0,0,0,0,0,0,0,0,0,0,0,0,0,-1.5193,-1.5193,-1.5205,-1.5205,-1.5205,-1.5209,-1.5209,-1.5209,-1.5201,-1.5201,-1.52,-1.52,-1.5205,-1.5205,-1.5206,0,0,0,0,0,0,0,0,0,0,0,0,0,-1.5198,-1.5193,-1.5205,-1.5202,-1.5201,-1.5209,-1.5209,-1.5209,-1.5201,-1.5201,-1.52,-1.52,-1.5205,-1.5205,-1.5206,-1.5217,0,0,-1.5207,-1.5208,0,0,0,0,0,0,0,0,-1.5197,-1.5198,-1.5202,-1.5202,-1.5202,-1.5204,-1.5206,-1.5212,-1.5201,-1.5201,-1.52,-1.52,-1.5205,-1.5205,-1.5207,-1.5217,-1.5218,-1.5207,-1.5208,-1.5208,-1.5208,0,0,0,0,0,0,0,-1.5197,-1.5198,-1.5207,-1.5202,-1.5202,-1.5201,-1.5201,-1.5207,-1.5205,-1.5201,-1.5201,-1.5201,-1.5205,-1.5207,-1.5207,-1.5218,-1.5207,-1.5208,-1.5208,-1.5209,-1.5238,-1.5238,0,0,0,0,0,0,-1.5197,-1.5198,-1.5207,-1.5207,-1.5198,-1.5201,-1.5201,-1.5204,-1.5205,-1.5205,-1.5201,-1.5201,-1.5206,-1.5206,-1.5207,-1.522,-1.5208,-1.5209,-1.5209,-1.5237,-1.5238,-1.5238,0,0,0,0,0,0,-1.5197,-1.5198,-1.5206,-1.5202,-1.5203,-1.5202,-1.5204,-1.5204,-1.5206,-1.5205,-1.5205,-1.5203,-1.5205,-1.5206,-1.5215,-1.522,-1.5209,-1.5209,-1.5237,-1.5238,-1.5238,-1.5247,0,0,0,0,0,0,-1.5196,-1.5198,-1.5202,-1.5202,-1.5203,-1.5213,-1.5205,-1.5204,-1.5207,-1.5206,-1.5207,-1.5207,-1.5205,-1.5214,-1.5215,-1.5221,-1.521,-1.5236,-1.5237,-1.5238,-1.5246,-1.5248,-1.5249,0,0,0,0,0,-1.5196,-1.5204,-1.5202,-1.5203,-1.5208,-1.5214,-1.5214,-1.5212,-1.5207,-1.5211,-1.5211,-1.5207,-1.522,-1.5215,-1.5216,-1.5222,-1.5236,-1.5237,-1.5238,-1.5245,-1.5248,-1.5249,0,0,0,0,0,0,-1.5204,-1.5204,-1.5202,-1.521,-1.5212,-1.5212,-1.5217,-1.5214,-1.5217,-1.5216,-1.5214,-1.5214,-1.5223,-1.5224,-1.5218,-1.5234,-1.5227,-1.5229,-1.5232,-1.5234,-1.5236,-1.5235,-1.521,0,0,0,0,0,-1.5207,-1.5211,-1.5211,-1.5219,-1.522,-1.5218,-1.5221,-1.5219,-1.5221,-1.5221,-1.5222,-1.5224,-1.5229,-1.5232,-1.5236,-1.5247,-1.5247,-1.5252,-1.5253,-1.5255,-1.5256,-1.5261,-1.5263,-1.5242,-1.5242,-1.5242,0,0,-1.5213,-1.5214,-1.5216,-1.5221,-1.5222,-1.5226,-1.5219,-1.5224,-1.5228,-1.5222,-1.523,-1.5231,-1.5233,-1.5242,-1.5247,-1.5243,-1.5262,-1.5256,-1.5257,-1.5257,-1.5262,-1.5265,-1.5266,-1.5242,-1.5242,-1.5242,0,0,-1.5226,-1.5227,-1.5233,-1.5235,-1.5236,-1.5236,-1.5237,-1.5238,-1.5238,-1.5246,-1.5242,-1.5247,-1.5255,-1.5256,-1.5259,-1.5273,-1.527,-1.5275,-1.5283,-1.5289,-1.529,-1.5292,-1.5297,-1.5298,-1.5276,-1.5276,-1.5276,0,-1.5233,-1.5239,-1.5237,-1.5242,-1.5244,-1.524,-1.5246,-1.5248,-1.5251,-1.5253,-1.525,-1.526,-1.5261,-1.5271,-1.5275,-1.5277,-1.5279,-1.5274,-1.529,-1.5292,-1.5293,-1.5297,-1.5299,-1.5277,-1.5277,-1.5277,-1.5277,0,-1.5248,-1.5253,-1.5258,-1.526,-1.5263,-1.5269,-1.5268,-1.5272,-1.527,-1.527,-1.5278,-1.5279,-1.5284,-1.5286,-1.5285,-1.5296,-1.5294,-1.5291,-1.5284,-1.5296,-1.53,-1.5302,-1.5278,-1.5277,-1.5277,-1.5277,0,0,-1.5265,-1.5267,-1.5268,-1.527,-1.5272,-1.5276,-1.5282,-1.5286,-1.5289,-1.5292,-1.5297,-1.5305,-1.5302,-1.5304,-1.5303,-1.5308,-1.5319,-1.5304,-1.5304,-1.5306,-1.5332,-1.5333,-1.5336,-1.5317,-1.5318,-1.5318,-1.5331,0,-1.5277,-1.5287,-1.5285,-1.5295,-1.5299,-1.5296,-1.5301,-1.5304,-1.5304,-1.5308,-1.5309,-1.5314,-1.531,-1.5311,-1.5316,-1.5317,-1.5324,-1.5316,-1.5322,-1.5322,-1.532,-1.5338,-1.534,-1.5352,-1.5333,-1.5333,-1.5333,0,-1.5292,-1.5295,-1.5305,-1.5307,-1.5309,-1.5314,-1.5317,-1.5322,-1.5325,-1.5325,-1.5328,-1.5326,-1.5333,-1.5327,-1.5336,-1.5331,-1.5334,-1.5335,-1.5335,-1.5335,-1.5328,-1.5337,-1.5356,-1.5357,-1.5336,-1.5336,-1.5336,0,-1.5302,-1.5309,-1.5316,-1.5318,-1.532,-1.5324,-1.5325,-1.5327,-1.533,-1.5334,-1.5336,-1.5341,-1.5343,-1.5347,-1.5347,-1.5343,-1.5357,-1.5351,-1.5357,-1.5357,-1.5359,-1.5359,-1.5378,-1.5363,-1.5363,-1.5363,-1.5362,0,-1.5315,-1.5322,-1.5321,-1.5325,-1.5332,-1.5331,-1.5338,-1.5339,-1.5342,-1.5346,-1.5344,-1.5349,-1.5348,-1.5353,-1.5354,-1.5361,-1.5363,-1.5363,-1.5363,-1.5363,-1.5362,-1.5364,-1.5362,-1.5363,-1.5363,-1.5363,-1.5363,0,-1.5328,-1.5327,-1.5335,-1.5337,-1.5337,-1.5342,-1.5344,-1.5349,-1.5349,-1.5355,-1.5357,-1.5358,-1.5363,-1.5364,-1.5371,-1.5371,-1.538,-1.5379,-1.5379,-1.5378,-1.5384,-1.5383,-1.5403,-1.5406,-1.539,-1.539,-1.539,0,-1.5335,-1.534,-1.5343,-1.5345,-1.5347,-1.5351,-1.5354,-1.5354,-1.5357,-1.5361,-1.5365,-1.537,-1.5374,-1.5384,-1.5385,-1.5391,-1.539,-1.5397,-1.539,-1.539,-1.5389,-1.5388,-1.5389,-1.5397,-1.5398,-1.5398,-1.5398,0,-1.5349,-1.5349,-1.5353,-1.5357,-1.536,-1.5363,-1.5366,-1.5369,-1.5369,-1.5373,-1.5378,-1.5382,-1.5389,-1.5394,-1.5399,-1.5402,-1.54,-1.54,-1.5401,-1.5401,-1.54,-1.54,-1.5381,-1.5399,-1.5399,-1.5399,-1.5399,-1.5399,-1.5359,-1.5363,-1.5365,-1.537,-1.5372,-1.5375,-1.5379,-1.538,-1.5385,-1.539,-1.539,-1.5396,-1.54,-1.5406,-1.5409,-1.5414,-1.5412,-1.5414,-1.5415,-1.5415,-1.5415,-1.54,-1.5415,-1.5415,-1.5415,-1.5415,-1.5415,0,-1.5372,-1.5373,-1.5378,-1.5382,-1.5385,-1.5384,-1.5387,-1.539,-1.5396,-1.5399,-1.5403,-1.541,-1.5415,-1.5418,-1.5424,-1.5427,-1.5427,-1.5429,-1.5428,-1.5428,-1.5417,-1.5415,-1.5429,-1.5429,-1.5429,-1.5429,-1.5429,-1.5429,-1.5379,-1.5385,-1.5386,-1.5394,-1.5395,-1.5401,-1.5403,-1.5406,-1.5409,-1.5416,-1.542,-1.5422,-1.5425,-1.5431,-1.5436,-1.5437,-1.5439,-1.5441,-1.5441,-1.5431,-1.5429,-1.5428,-1.5426,-1.5442,-1.5442,-1.5452,-1.5452,-1.5452]},{"header":{"parameterUnit":"m.s-1","parameterCategory":1,"la1":30.2991,"la2":30.254,"lo1":-89.0895,"lo2":-89.0444,"dy":0.0017,"dx":0.0017,"nx":28,"ny":28,"refTime":"2024-03-30T03:00:00:Z","depth":0,"parameterNumber":3,"parameterNumberName":"V-component_of_WINDS"},"data":[0,0,0,0,0,0,0,0,0,0,0,0,0,0,0,0,0,0,0,0,0,0,0,0,0,0,0,0,0,0,0,0,0,0,0,0,0,0,0,0,0,0,0,0,0,0,0,0,0,0,0,0,0,0,0,0,0,0,3.2597,3.2597,0,3.2531,3.2531,3.253,3.248,3.248,3.2479,3.2479,3.2411,3.2409,3.2408,0,0,0,0,0,0,0,0,0,0,0,0,0,3.268,3.2678,3.2597,3.2597,3.2596,3.2532,3.2531,3.253,3.248,3.248,3.2479,3.2479,3.2411,3.2409,3.2408,0,0,0,0,0,0,0,0,0,0,0,0,0,3.2632,3.2678,3.2598,3.2563,3.256,3.2532,3.2531,3.253,3.248,3.248,3.2479,3.2478,3.2412,3.241,3.2407,3.2408,0,0,3.2401,3.24,0,0,0,0,0,0,0,0,3.2635,3.2629,3.2569,3.2566,3.2561,3.2513,3.2535,3.2489,3.248,3.251,3.2479,3.2478,3.2445,3.244,3.2429,3.2405,3.2402,3.2401,3.24,3.2399,3.2398,0,0,0,0,0,0,0,3.2638,3.2632,3.2571,3.2568,3.2564,3.2551,3.2544,3.2526,3.2482,3.2508,3.2504,3.2497,3.2443,3.2432,3.2428,3.2401,3.2401,3.2399,3.2398,3.2397,3.2375,3.2375,0,0,0,0,0,0,3.2647,3.2635,3.2573,3.2569,3.2597,3.255,3.2542,3.2529,3.2482,3.2475,3.2498,3.2495,3.2436,3.243,3.2425,3.2423,3.2399,3.2397,3.2396,3.2374,3.2375,3.2376,0,0,0,0,0,0,3.2649,3.2642,3.2576,3.2601,3.2592,3.2549,3.2536,3.2528,3.2517,3.2475,3.2467,3.2494,3.2435,3.2428,3.2413,3.242,3.2396,3.2394,3.2373,3.2374,3.2375,3.242,0,0,0,0,0,0,3.2651,3.2643,3.2643,3.2601,3.259,3.2565,3.2536,3.2528,3.2514,3.2509,3.2469,3.2462,3.2434,3.2416,3.2411,3.2417,3.2392,3.2373,3.2374,3.2375,3.2418,3.2422,3.2426,0,0,0,0,0,3.2655,3.2658,3.2643,3.2636,3.2589,3.2566,3.256,3.2527,3.2514,3.2514,3.2487,3.2463,3.242,3.2415,3.2409,3.2414,3.2372,3.2373,3.2375,3.2416,3.2421,3.2426,0,0,0,0,0,0,3.27,3.2651,3.2635,3.2625,3.26,3.2558,3.2556,3.2534,3.2512,3.2509,3.247,3.2461,3.2451,3.2431,3.2426,3.2413,3.2393,3.2393,3.2426,3.2431,3.2436,3.2441,3.2391,0,0,0,0,0,3.271,3.2695,3.2652,3.2648,3.2636,3.2598,3.2587,3.2564,3.2537,3.2526,3.2498,3.2472,3.2453,3.2441,3.2421,3.2414,3.2405,3.2415,3.2419,3.2423,3.2424,3.242,3.2424,3.2381,3.2381,3.2381,0,0,3.2728,3.2699,3.2692,3.2656,3.2634,3.262,3.259,3.2575,3.2564,3.2524,3.2508,3.2487,3.2455,3.2445,3.2439,3.2428,3.2434,3.2425,3.2428,3.2427,3.2422,3.2426,3.243,3.2382,3.2381,3.2381,0,0,3.2754,3.2731,3.2724,3.2703,3.2671,3.2646,3.2645,3.2606,3.259,3.2574,3.2543,3.2529,3.2497,3.2476,3.2461,3.2481,3.2458,3.2475,3.2498,3.2494,3.2498,3.2501,3.2508,3.2511,3.2476,3.2476,3.2476,0,3.2781,3.2758,3.2724,3.2712,3.2697,3.266,3.2653,3.2634,3.2597,3.2588,3.2576,3.2535,3.2511,3.2496,3.2501,3.249,3.2487,3.2479,3.25,3.2502,3.2505,3.2511,3.2514,3.2478,3.2478,3.2478,3.2478,0,3.2793,3.2778,3.2776,3.2742,3.2727,3.2718,3.2682,3.2671,3.265,3.2626,3.2611,3.2581,3.2555,3.2549,3.2528,3.2531,3.2525,3.2507,3.2487,3.2512,3.2517,3.252,3.2482,3.2481,3.248,3.248,0,0,3.2846,3.2793,3.2793,3.2778,3.2739,3.2727,3.2716,3.2691,3.2682,3.2658,3.2648,3.2622,3.2605,3.2588,3.2565,3.2562,3.258,3.2544,3.2543,3.2552,3.2582,3.2596,3.2599,3.2564,3.2565,3.2565,3.2585,0,3.2866,3.2845,3.2815,3.2804,3.2789,3.2754,3.2745,3.2721,3.2699,3.2683,3.2658,3.2641,3.262,3.261,3.2605,3.2578,3.2585,3.2577,3.2555,3.2555,3.2565,3.2602,3.2617,3.2637,3.2587,3.2587,3.2587,0,3.2888,3.2866,3.2854,3.2817,3.281,3.2802,3.2777,3.2763,3.2734,3.2719,3.2701,3.2675,3.2662,3.2644,3.2625,3.262,3.261,3.2596,3.2596,3.2593,3.2573,3.2601,3.2642,3.2646,3.259,3.259,3.259,0,3.2929,3.2896,3.2885,3.2872,3.2829,3.2825,3.2807,3.2778,3.2765,3.2742,3.2734,3.271,3.2697,3.268,3.2649,3.2638,3.2634,3.2613,3.2621,3.2622,3.2622,3.2622,3.2663,3.2615,3.2615,3.2614,3.2614,0,3.2955,3.2949,3.2903,3.2896,3.2888,3.2853,3.2847,3.2825,3.28,3.2788,3.2756,3.2746,3.2706,3.2691,3.2666,3.2655,3.265,3.2637,3.263,3.264,3.2642,3.2633,3.2631,3.2615,3.2615,3.2615,3.2615,0,3.3,3.2968,3.2954,3.2914,3.2904,3.2901,3.2867,3.2859,3.2835,3.2821,3.2816,3.2778,3.2759,3.2726,3.2698,3.2681,3.2675,3.2664,3.2685,3.2681,3.2691,3.2691,3.2728,3.2731,3.2681,3.2681,3.2682,0,3.3019,3.3014,3.2974,3.2964,3.2947,3.2932,3.2919,3.2884,3.2871,3.2839,3.2835,3.2814,3.2795,3.2766,3.2736,3.2714,3.2703,3.2717,3.2699,3.2709,3.2704,3.2705,3.2704,3.2721,3.2722,3.2723,3.2723,0,3.3057,3.3042,3.3024,3.3001,3.2986,3.2966,3.2944,3.2938,3.2898,3.2886,3.2866,3.2852,3.2823,3.2802,3.2776,3.2757,3.2734,3.2729,3.273,3.274,3.2752,3.2746,3.2697,3.2728,3.2728,3.2727,3.2727,3.2727,3.3089,3.3084,3.3055,3.3036,3.3017,3.2997,3.2988,3.2963,3.2946,3.292,3.2901,3.2883,3.2855,3.2818,3.28,3.2786,3.2775,3.2776,3.2776,3.2777,3.2781,3.2754,3.2781,3.2781,3.2781,3.278,3.278,0,3.3126,3.3106,3.309,3.3061,3.3046,3.3025,3.3001,3.299,3.2975,3.2951,3.2933,3.2911,3.2891,3.2859,3.2837,3.2831,3.282,3.2827,3.2827,3.2823,3.2792,3.2794,3.2836,3.2836,3.2836,3.2836,3.2836,3.2836,3.3144,3.3133,3.3115,3.3094,3.3073,3.3056,3.3043,3.3026,3.3006,3.2983,3.2967,3.2946,3.292,3.2895,3.2876,3.2867,3.2861,3.2871,3.2859,3.2831,3.2825,3.282,3.2822,3.287,3.287,3.2891,3.2892,3.2892]}]]